sat.trackr.live / text

‹ back to catalog

INMARSAT GX5

NORAD 44801 · 2019-080B

PAYLOAD ACTIVE UNKNOWN

§ Identity

Operator
Country
IM
Launch date
2019-11-26
Launch site
FRGUI
Launch vehicle
Mass (kg)
RCS (m²)

Purposes: comms

External: N2YO · Heavens-Above · Gunter

§ Orbital elements

Epoch: 2026-05-25T03:47:46.959360Z

Period
1,436.12 min
Inclination
0.0415°
Eccentricity
0.0001962
Mean motion
1.00269922 rev/d
Perigee alt
35,778.8 km
Apogee alt
35,795.4 km
Semi-major
42,165.3 km
B*
0.0000e+0
RAAN
11.1387°
Arg perigee
59.8644°
Mean anomaly
239.7261°
Rev number
655

§ Raw data

INMARSAT GX51 44801U 19080B   26145.15818240  .00000072  00000+0  00000+0 0  99992 44801   0.0415  11.1387 0001962  59.8644 239.7261  1.00269922  6551

JSON: /api/v1/satellites/44801 · /tle

For live sub-satellite position, see the globe view (requires WebGL).

§ Visibility from observer

Set your observer location to see the next 7 days of passes ≥ 10°. The values pass through the URL so the page stays shareable.

No JS? Fill the form by hand. The geolocation button needs JavaScript.